Flag for U.S.A. Weather past 2 weeks in Glendale, California, U.S.A.

Now
70 °F

Sunny.


Feels Like: 76 °F
Forecast: 58 / 83 °F
Wind: 5 mph from South

Location: Burbank-Glendale-Pasadena Airport

Current Time: May 29, 2015 at 11:43:16 AM

Latest Report: May 29, 2015 at 10:53 AM


Visibility: 7 mi

Pressure: 29.91 "Hg

Humidity: 59%

Dew point: 55 °F

Location of GlendaleLocation

Historic Weather in Glendale — Graph

°F

Glendale temperature yesterday

Maximum temperature yesterday: 79 °F (at 2:53 PM)
Minimum temperature yesterday: 55 °F (at 5:53 AM)
Average temperature yesterday: 66 °F

Past Weeks' High & Low Weather Summary

 TemperatureHumidityPressure
High79 °F (May 28, 2:53 PM)90% (May 29, 4:53 AM)30.06 "Hg (May 29, 4:53 AM)
Low52 °F (May 15, 1:53 AM)42% (May 15, 5:53 PM)29.78 "Hg (May 15, 4:53 PM)
Average62 °F66%29.94 "Hg
* Reported May 14 9:53 AM — May 29 9:53 AM, Glendale, Weather by CustomWeather, © 2015

Note: Actual official high and low records may vary slightly from our data, if they occured in-between our weather recording intervals... More about our weather records

Advertising

Glendale weather history for previous 24 hours

 ConditionsComfort  
Time TempWeatherWind HumidityBarometerVisibility
9:53 AM
Fri, May 29
64 °FSunny.6 mph73%29.93 "Hg5 mi
8:53 AM60 °FLow clouds.5 mph80%29.94 "Hg3 mi
7:53 AM58 °FFog.3 mph87%29.93 "Hg3 mi
6:53 AM58 °FFog.5 mph87%29.92 "Hg3 mi
5:53 AM58 °FFog.7 mph87%29.91 "Hg5 mi
4:53 AM57 °FFog.5 mph90%29.90 "Hg6 mi
3:53 AM59 °FClear.5 mph84%29.90 "Hg10 mi
2:53 AM59 °FClear.3 mph84%29.90 "Hg10 mi
1:53 AM60 °FClear.3 mph80%29.90 "Hg10 mi
12:53 AM61 °FClear.3 mph81%29.91 "Hg10 mi
11:53 PM
Thu, May 28
62 °FClear.6 mph78%29.91 "Hg10 mi
10:53 PM63 °FClear.6 mph75%29.92 "Hg10 mi
9:53 PM64 °FClear.7 mph73%29.91 "Hg10 mi
8:53 PM66 °FSunny.8 mph68%29.90 "Hg10 mi
7:53 PM68 °FSunny.8 mph63%29.88 "Hg10 mi
6:53 PM72 °FSunny.8 mph55%29.86 "Hg10 mi
5:53 PM76 °FSunny.9 mph47%29.86 "Hg10 mi
4:53 PM77 °FSunny.7 mph47%29.87 "Hg10 mi
3:53 PM78 °FSunny.9 mph45%29.87 "Hg10 mi
2:53 PM79 °FSunny.10 mph44%29.89 "Hg10 mi
1:53 PM77 °FSunny.7 mph47%29.91 "Hg10 mi
12:53 PM75 °FSunny.10 mph50%29.93 "Hg6 mi
11:53 AM71 °FSunny.9 mph55%29.95 "Hg8 mi
Weather by CustomWeather, © 2015

See weather overviewHow to use our weather pages